Regional Weather Roundup
Issued by NWS Goodland, KS

Home | Current Version | Previous Version | Text Only | Print | Product List | Glossary Off
Versions: 1 2 3 4 5 6 7 8 9 10 11 12 13 14 15 16 17 18 19 20 21 22 23 24 25 26 27 28 29 30 31 32 33 34 35 36 37 38 39 40 41 42 43 44 45 46 47 48 49 50

000
ASUS43 KGLD 091108
RWRGLD

GOODLAND FORECAST AREA HOURLY WEATHER ROUNDUP
NATIONAL WEATHER SERVICE GOODLAND KS
400 AM MST TUE FEB 09 2016

...OFFICIAL OBSERVATIONS...

CITY           SKY/WX    TMP DP  RH WIND       PRES   REMARKS
GOODLAND KS    CLOUDY    22  18  85 NW8       30.21S
HILL CITY KS   MOCLDY    32  22  66 W6        30.21S
IMPERIAL NEB   CLOUDY    31  24  75 NW10      30.20S
MCCOOK NEB     MOCLDY    28  19  69 W12       30.21S WCI  18
AKRON CO       CLEAR     27  21  78 W20       30.24S WCI  13
BURLINGTON CO  CLEAR     30  20  66 NW13      30.23S WCI  20
LIMON CO       CLOUDY    23  16  74 W13       30.29F WCI  11
$$

...UNOFFICIAL OBSERVATIONS...

CITY           SKY/WX    TMP DP  RH WIND       PRES   REMARKS
COLBY KS       CLOUDY    25  25 100 W6        30.21F
GOVE KS          N/A     27  32 100 MISG        N/A
LENORA KS        N/A     31  32 100 MISG        N/A
NORTON KS      CLOUDY    32  21  64 NW10      30.20R
SHARON SPRINGS   N/A     34  27  75 NW12G20     N/A
KIT CARSON CO    N/A     28  21  75 MISG        N/A
YUMA CO          N/A     29  23  79 W18         N/A  WCI  17
$$




USA.gov is the U.S. government's official web portal to all federal, state and local government web resources and services.